AirNav  
 
 1535 users online  

VA33 Beaver Dam Airpark
Surry, Virginia, USA

GOING TO SURRY?


FAA INFORMATION EFFECTIVE 25 FEBRUARY 2021

Location

FAA Identifier: VA33
Lat/Long: 37-02-39.5400N 076-46-05.7000W
37-02.659000N 076-46.095000W
37.0443167,-76.7682500
(estimated)
Elevation: 100 ft. / 30 m (estimated)
Variation: 10W (2000)
From city: 14 miles S of SURRY, VA
Time zone: UTC -5 (UTC -4 during Daylight Saving Time)
Zip code: 23846

Airport Operations

Airport use: Private use. Permission required prior to landing
Activation date: 07/2002
Control tower: no
ARTCC: WASHINGTON CENTER
FSS: LEESBURG FLIGHT SERVICE STATION
Attendance: UNATNDD
Wind indicator: yes
Segmented circle: no

Airport Communications

WX ASOS at AKQ (12 nm W): 128.325 (757-899-2300)
WX AWOS-3 at JGG (12 nm N): 120.625 (757-220-8810)
WX ASOS at PHF (14 nm E): PHONE 757-874-3682
  • 122.85

Nearby radio navigation aids

VOR radial/distance  VOR name  Freq  Var
FKNr040/23.0FRANKLIN VORTAC110.6009W
HPWr142/23.8HOPEWELL VORTAC112.0006W
HCMr193/24.4HARCUM VORTAC108.8007W
ORFr296/28.7NORFOLK VORTAC116.9007W
RICr145/38.1RICHMOND VORTAC114.1009W

 
NDB name  Hdg/Dist  Freq  Var  ID
WAKEFIELD083/11.727411WAKQ .- -.- --.-

Airport Services

Fuel available: 100LL MOGAS
FOR FUEL SVC, CALL 757-636-0609.
Airframe service: MAJOR
Powerplant service: MAJOR

Runway Information

Runway 9/27

Dimensions: 2500 x 100 ft. / 762 x 30 m
Surface: turf
RUNWAY 9  RUNWAY 27
Traffic pattern: leftleft
Obstructions: 40 ft. trees, 1040 ft. from runwaynone

Airport Ownership and Management from official FAA records

Ownership: Privately-owned
Owner: BEAVER DAM AIRPARK ESTATES, LLC.
8229 BEECH LAND RD
ELBERON, VA 23846
Phone 757-636-0609
OWNER NAMES ARE C.A. NUCKLES, JR., PHILIP OLAH, ROBERT STRUNK.
Manager: C.A. NUKLES, JR.
8229 BEECH LAND RD
ELBERON, VA 23846
Phone 757-503-1811

Airport Operational Statistics

Aircraft based on the field: 11
Single engine airplanes: 8
Ultralights: 3
    

Additional Remarks

PILOT LOUNGE AND RESTROOM AVBL.
FOR CD CTC NORFOLK APCH AT 757-464-0757.

Instrument Procedures

There are no published instrument procedures at VA33.

Some nearby airports with instrument procedures:

KFAF - Felker Army Airfield (9 nm NE)
KAKQ - Wakefield Municipal Airport (12 nm W)
KJGG - Williamsburg-Jamestown Airport (12 nm N)
KPHF - Newport News/Williamsburg International Airport (14 nm E)
W94 - Camp Peary Landing Strip Airport (17 nm N)
KLFI - Langley Air Force Base (20 nm E)
 
Loc | Ops | Rwys | IFR | FBO | Links
Com | Nav | Svcs | Stats | Notes
Area around VA33 (Beaver Dam Airpark)
 
Road maps at: MapQuest Bing Google
 
Aerial photo
WARNING: Photo may not be current or correct
Aerial photo of VA33 (Beaver Dam Airpark)
Photo taken 01-May-2018
looking east.

Do you have a better or more recent aerial photo of Beaver Dam Airpark that you would like to share? If so, please send us your photo.

 
Sectional chart

 
Airport distance calculator
Flying to Beaver Dam Airpark? Find the distance to fly.

From to VA33

Sunrise and sunset
Times for 08-Mar-2021
 Local
(UTC-5)
 Zulu
(UTC)
Morning civil twilight06:0311:03
Sunrise06:2911:29
Sunset18:0723:07
Evening civil twilight18:3323:33

Current date and time
Zulu (UTC)  08-Mar-2021 17:20:24
Local (UTC-5)  08-Mar-2021 12:20:24
 
METAR
KFAF 
8nm NE 
081656Z AUTO 36005KT 10SM CLR 09/M05 A3049 RMK AO2 SLP328 T00941046 $
KAKQ 
12nm W 
081654Z AUTO 30007KT 10SM CLR 11/M08 A3050 RMK AO2 SLP332 T01061078
KJGG 
12nm N 
081655Z AUTO 30006G15KT 10SM CLR 11/M07 A3051 RMK AO1
KPHF 
14nm NE 
081654Z AUTO 31009KT 10SM CLR 09/M06 A3051 RMK AO2 RAE16 SLP331 P0000 T00941061
KLFI 
19nm E 
081556Z 25009KT 9SM FEW210 08/M06 A3052 RMK AO2A SLP342 T00811061 $
TAF
KFAF 
8nm NE 
081050Z 0811/0917 VRB06KT 9999 SKC QNH3041INS TX12/0819Z TNM02/0811Z
KPHF 
14nm NE 
081120Z 0812/0912 32004KT P6SM SKC FM090300 22005KT P6SM SKC
KLFI 
19nm E 
081000Z 0810/0916 25009KT 9999 FEW280 QNH3040INS TX09/0816Z TNM03/0810Z
NOTAMs
Click for the latest NOTAMs
NOTAMs are issued by the DoD/FAA and will open in a separate window not controlled by AirNav.

 

 
 

Would you like to see your business listed on this page?

 If your business provides an interesting product or service to pilots, flight crews, aircraft, or users of the Beaver Dam Airpark, you should consider listing it here.  To start the listing process, click on the button below
 
Add a business
 

Other Pages about Beaver Dam Airpark

Update a link
 
Copyright © AirNav, LLC. All rights reserved. Privacy Policy  Contact